Regional Weather Roundup
Issued by NWS Nashville, TN

Home | Current Version | Previous Version | Text Only | Print | Product List | Glossary On
Versions: 1 2 3 4 5 6 7 8 9 10 11 12 13 14 15 16 17 18 19 20 21 22 23 24 25 26 27 28
000
ASUS44 KOHX 211210
RWROHX
MIDDLE TENNESSEE HOURLY WEATHER ROUNDUP
NATIONAL WEATHER SERVICE NASHVILLE TN
600 AM CST TUE NOV 21 2017

NOTE: "FAIR" INDICATES FEW OR NO CLOUDS BELOW 12,000 FEET WITH
NO SIGNIFICANT WEATHER AND/OR OBSTRUCTIONS TO VISIBILITY.

* THESE REPORTS ARE NOT UNDER NWS QUALITY CONTROL AND MAY NOT
  REPORT WEATHER SUCH AS PRECIPITATION AND FOG.


TNZ005>011-023>034-057-059-062>066-078-080-211300
...NORTHERN MIDDLE TENNESSEE...

CITY           SKY/WX    TMP DP  RH WIND       PRES   REMARKS
CLARKSVILLE    CLOUDY    37  26  64 S6        30.04S WCI  32
CROSSVILLE     CLEAR     43  32  65 VRB7      30.08S
GALLATIN       CLEAR     32  28  86 CALM      30.09S
DICKSON          N/A     37  26  65 S7        30.02F WCI  31
LEBANON        CLOUDY    33  29  86 CALM      30.03F
NASHVILLE      CLOUDY    36  29  75 CALM      30.07R
PORTLAND       CLEAR     37  30  75 S7        30.05S WCI  32
SMYRNA         CLEAR     31  28  89 SE3       30.08F
SPARTA         PTCLDY    34  30  86 S5        30.07R WCI  30
SPRINGFIELD    CLEAR     39  28  65 S6        30.02F WCI  35
WEST NASHVILLE CLEAR     32  28  86 CALM      30.05R
$$
TNZ056-058-060-061-075>077-079-093>097-211300
...SOUTHERN MIDDLE TENNESSEE...

CITY           SKY/WX    TMP DP  RH WIND       PRES   REMARKS
COLUMBIA       CLEAR     34  30  86 CALM      30.04F
FAYETTEVILLE   CLEAR     41  34  75 S8        30.07R
MCMINNVILLE    PTCLDY    45  34  65 SW5       30.06S
MURFREESBORO   CLEAR     32  29  89 CALM      30.07S
PULASKI        CLEAR     27  27 100 CALM      30.08R
SHELBYVILLE    CLEAR     32  30  93 CALM      30.07S
TULLAHOMA      CLEAR     41  34  75 SE6       30.06S
WINCHESTER     CLEAR     39  34  81 SE7       30.08S WCI  34
$$


...KEY TO REMARKS...
VSB - VISIBILITY IN MILES
WCI - WIND CHILL INDEX
HX  - HEAT INDEX





USA.gov is the U.S. government's official web portal to all federal, state and local government web resources and services.